TimeEDT,TemperatureF,Dew PointF,Humidity,Sea Level PressureIn,VisibilityMPH,Wind Direction,Wind SpeedMPH,Gust SpeedMPH,PrecipitationIn,Events,Conditions,WindDirDegrees,DateUTC
12:15 AM,42.8,24.8,49,29.85,10.0,WSW,4.6,-,N/A,,Overcast,240,2012-11-02 04:15:00
12:35 AM,42.8,24.8,49,29.85,10.0,Calm,Calm,-,N/A,,Overcast,0,2012-11-02 04:35:00
12:55 AM,42.8,26.6,53,29.85,10.0,WSW,3.5,-,N/A,,Overcast,240,2012-11-02 04:55:00
1:15 AM,42.8,24.8,49,29.85,10.0,West,3.5,-,N/A,,Overcast,260,2012-11-02 05:15:00
1:35 AM,42.8,24.8,49,29.85,10.0,Calm,Calm,-,N/A,,Overcast,0,2012-11-02 05:35:00
1:55 AM,42.8,26.6,53,29.84,10.0,Calm,Calm,-,N/A,,Overcast,0,2012-11-02 05:55:00
2:15 AM,42.8,26.6,53,29.84,10.0,Calm,Calm,-,N/A,,Overcast,0,2012-11-02 06:15:00
2:35 AM,42.8,26.6,53,29.84,10.0,WSW,4.6,-,N/A,,Overcast,250,2012-11-02 06:35:00
2:55 AM,42.8,28.4,57,29.84,10.0,SW,3.5,-,N/A,,Overcast,230,2012-11-02 06:55:00
3:15 AM,41.0,28.4,61,29.84,10.0,WSW,4.6,-,N/A,,Overcast,250,2012-11-02 07:15:00
3:35 AM,42.8,28.4,57,29.84,10.0,WSW,3.5,-,N/A,,Overcast,240,2012-11-02 07:35:00
3:55 AM,41.0,28.4,61,29.84,10.0,SW,3.5,-,N/A,,Overcast,230,2012-11-02 07:55:00
4:15 AM,42.8,28.4,57,29.83,10.0,Calm,Calm,-,N/A,,Overcast,0,2012-11-02 08:15:00
4:35 AM,41.0,30.2,65,29.83,10.0,Calm,Calm,-,N/A,,Overcast,0,2012-11-02 08:35:00
4:55 AM,41.0,32.0,70,29.83,10.0,Calm,Calm,-,N/A,,Overcast,0,2012-11-02 08:55:00
5:15 AM,41.0,30.2,65,29.83,10.0,Calm,Calm,-,N/A,,Overcast,0,2012-11-02 09:15:00
5:35 AM,41.0,30.2,65,29.83,10.0,Calm,Calm,-,N/A,,Overcast,0,2012-11-02 09:35:00
5:55 AM,41.0,30.2,65,29.84,10.0,Calm,Calm,-,N/A,,Overcast,0,2012-11-02 09:55:00
6:15 AM,42.8,28.4,57,29.84,10.0,Calm,Calm,-,N/A,,Overcast,0,2012-11-02 10:15:00
6:35 AM,42.8,28.4,57,29.85,10.0,Calm,Calm,-,N/A,,Overcast,0,2012-11-02 10:35:00
6:55 AM,42.8,28.4,57,29.86,10.0,Calm,Calm,-,N/A,,Overcast,0,2012-11-02 10:55:00
7:15 AM,42.8,28.4,57,29.86,10.0,Calm,Calm,-,N/A,,Overcast,0,2012-11-02 11:15:00
7:35 AM,41.0,26.6,57,29.87,10.0,Calm,Calm,-,N/A,,Overcast,0,2012-11-02 11:35:00
7:55 AM,41.0,26.6,57,29.89,10.0,Calm,Calm,-,N/A,,Overcast,0,2012-11-02 11:55:00
8:15 AM,41.0,26.6,57,29.89,10.0,Calm,Calm,-,N/A,,Overcast,0,2012-11-02 12:15:00
8:35 AM,41.0,26.6,57,29.90,10.0,Calm,Calm,-,N/A,,Overcast,0,2012-11-02 12:35:00
8:55 AM,41.0,26.6,57,29.91,10.0,Calm,Calm,-,N/A,,Overcast,0,2012-11-02 12:55:00
9:15 AM,41.0,26.6,57,29.93,10.0,Calm,Calm,-,N/A,,Overcast,0,2012-11-02 13:15:00
9:35 AM,41.0,28.4,61,29.94,10.0,Calm,Calm,-,N/A,,Mostly Cloudy,0,2012-11-02 13:35:00
9:55 AM,42.8,28.4,57,29.94,10.0,Calm,Calm,-,N/A,,Scattered Clouds,0,2012-11-02 13:55:00
10:15 AM,44.6,28.4,53,29.95,10.0,WNW,3.5,-,N/A,,Clear,300,2012-11-02 14:15:00
10:35 AM,46.4,28.4,50,29.95,10.0,WNW,3.5,-,N/A,,Clear,290,2012-11-02 14:35:00
10:55 AM,46.4,28.4,50,29.95,10.0,North,3.5,-,N/A,,Clear,360,2012-11-02 14:55:00
11:15 AM,50.0,28.4,43,29.96,10.0,NNW,5.8,-,N/A,,Clear,330,2012-11-02 15:15:00
11:35 AM,50.0,28.4,43,29.96,10.0,WNW,8.1,-,N/A,,Clear,300,2012-11-02 15:35:00
11:55 AM,50.0,28.4,43,29.97,10.0,NNW,3.5,-,N/A,,Clear,340,2012-11-02 15:55:00
12:15 PM,51.8,28.4,41,29.97,10.0,West,6.9,-,N/A,,Scattered Clouds,280,2012-11-02 16:15:00
12:35 PM,51.8,28.4,41,29.97,10.0,NW,4.6,-,N/A,,Scattered Clouds,320,2012-11-02 16:35:00
12:55 PM,51.8,28.4,41,29.97,10.0,WNW,6.9,-,N/A,,Scattered Clouds,290,2012-11-02 16:55:00
1:15 PM,51.8,28.4,41,29.97,10.0,West,6.9,-,N/A,,Scattered Clouds,280,2012-11-02 17:15:00
1:35 PM,50.0,28.4,43,29.97,10.0,WNW,6.9,16.1,N/A,,Scattered Clouds,290,2012-11-02 17:35:00
1:55 PM,53.6,28.4,38,29.97,10.0,NW,6.9,-,N/A,,Scattered Clouds,320,2012-11-02 17:55:00
2:15 PM,53.6,28.4,38,29.96,10.0,NW,9.2,-,N/A,,Scattered Clouds,320,2012-11-02 18:15:00
2:35 PM,51.8,28.4,41,29.97,10.0,NW,8.1,-,N/A,,Scattered Clouds,310,2012-11-02 18:35:00
2:55 PM,51.8,28.4,41,29.97,10.0,West,6.9,-,N/A,,Scattered Clouds,280,2012-11-02 18:55:00
3:15 PM,53.6,26.6,35,29.97,10.0,West,5.8,-,N/A,,Scattered Clouds,270,2012-11-02 19:15:00
3:35 PM,53.6,28.4,38,29.97,10.0,WNW,5.8,-,N/A,,Mostly Cloudy,290,2012-11-02 19:35:00
3:55 PM,50.0,26.6,40,29.98,10.0,WNW,8.1,-,N/A,,Scattered Clouds,290,2012-11-02 19:55:00
4:15 PM,51.8,28.4,41,29.98,10.0,West,4.6,-,N/A,,Mostly Cloudy,280,2012-11-02 20:15:00
4:35 PM,51.8,26.6,38,29.99,10.0,WNW,5.8,-,N/A,,Scattered Clouds,290,2012-11-02 20:35:00
4:55 PM,50.0,26.6,40,29.99,10.0,WNW,5.8,-,N/A,,Scattered Clouds,300,2012-11-02 20:55:00
5:15 PM,50.0,26.6,40,29.99,10.0,NW,6.9,-,N/A,,Scattered Clouds,310,2012-11-02 21:15:00
5:35 PM,48.2,28.4,46,30.00,10.0,NW,5.8,-,N/A,,Clear,320,2012-11-02 21:35:00
5:55 PM,46.4,28.4,50,30.01,10.0,NNW,5.8,-,N/A,,Clear,330,2012-11-02 21:55:00
6:15 PM,46.4,28.4,50,30.01,10.0,NW,4.6,-,N/A,,Clear,320,2012-11-02 22:15:00
6:35 PM,44.6,28.4,53,30.02,10.0,Calm,Calm,-,N/A,,Clear,0,2012-11-02 22:35:00
6:55 PM,42.8,28.4,57,30.03,10.0,Calm,Calm,-,N/A,,Clear,0,2012-11-02 22:55:00
7:15 PM,42.8,28.4,57,30.04,10.0,NNW,3.5,-,N/A,,Clear,330,2012-11-02 23:15:00
7:35 PM,41.0,28.4,61,30.05,10.0,Calm,Calm,-,N/A,,Clear,0,2012-11-02 23:35:00
7:55 PM,41.0,28.4,61,30.05,10.0,Calm,Calm,-,N/A,,Scattered Clouds,0,2012-11-02 23:55:00
8:15 PM,39.2,30.2,70,30.05,10.0,Calm,Calm,-,N/A,,Mostly Cloudy,0,2012-11-03 00:15:00
8:35 PM,37.4,30.2,75,30.05,10.0,Calm,Calm,-,N/A,,Overcast,0,2012-11-03 00:35:00
8:55 PM,39.2,30.2,70,30.06,10.0,Calm,Calm,-,N/A,,Overcast,0,2012-11-03 00:55:00
9:15 PM,39.2,32.0,75,30.06,10.0,Calm,Calm,-,N/A,,Overcast,0,2012-11-03 01:15:00
9:35 PM,41.0,32.0,70,30.06,10.0,Calm,Calm,-,N/A,,Overcast,0,2012-11-03 01:35:00
9:55 PM,42.8,30.2,61,30.07,10.0,Calm,Calm,-,N/A,,Overcast,0,2012-11-03 01:55:00
10:15 PM,41.0,32.0,70,30.07,10.0,Calm,Calm,-,N/A,,Overcast,0,2012-11-03 02:15:00
10:35 PM,41.0,32.0,70,30.08,10.0,Calm,Calm,-,N/A,,Overcast,0,2012-11-03 02:35:00
10:55 PM,41.0,30.2,65,30.09,10.0,Calm,Calm,-,N/A,,Overcast,0,2012-11-03 02:55:00
11:15 PM,42.8,30.2,61,30.08,10.0,Calm,Calm,-,N/A,,Overcast,0,2012-11-03 03:15:00
11:35 PM,41.0,30.2,65,30.08,10.0,Calm,Calm,-,N/A,,Overcast,0,2012-11-03 03:35:00
11:55 PM,41.0,30.2,65,30.08,10.0,Calm,Calm,-,N/A,,Overcast,0,2012-11-03 03:55:00